Weather observations for the past three days for
Michigan City Municipal Airport
Imperial (Metric)
Date Time (cdt) Wind (mph) Vis. (mi.) Weather Sky Cond. Temperature (ºF) Relative Humidity Wind Chill (°F) Heat Index (°F) Pressure Precipitation (in)
Air Dwpt 6 hour altimeter (in) sea level (mb) 1 hr 3 hr 6 hr
Max. Min.
09 16:35 W 10 10.00 Mostly Cloudy BKN100 69.8 37.4 31% 29.67 0.0
09 16:15 W 10 G 18 10.00 Mostly Cloudy BKN100 69.8 39.2 33% 29.67 0.0
09 15:55 W 10 G 21 10.00 Mostly Cloudy BKN100 69.8 37.4 31% 29.67 0.0
09 15:35 W 9 G 17 10.00 Mostly Cloudy BKN100 69.8 44.6 40% 29.66 0.0
09 15:15 SW 14 G 20 10.00 Overcast OVC110 69.8 42.8 38% 29.67 0.0
09 14:55 W 15 G 21 10.00 Mostly Cloudy BKN110 69.8 44.6 40% 29.67 0.0
09 14:35 W 8 10.00 Partly Cloudy SCT110 69.8 44.6 40% 29.67 0.0
09 14:15 W 9 G 17 10.00 Mostly Cloudy BKN110 68 44.6 43% 29.68 0.0
09 13:55 W 8 10.00 Mostly Cloudy BKN120 68 44.6 43% 29.68 0.0
09 13:35 W 3 10.00 Mostly Cloudy BKN120 64.4 46.4 52% 29.69 0.0
09 13:15 W 8 10.00 Partly Cloudy SCT120 64.4 46.4 52% 29.68 0.0
09 12:55 NW 12 G 17 10.00 Fair CLR 68 42.8 40% 29.68 0.0
09 12:35 W 10 G 17 10.00 Fair CLR 68 46.4 46% 29.68 0.0
09 12:15 SW 10 G 18 10.00 Fair CLR 68 51.8 56% 29.67 0.0
09 11:55 SW 13 G 21 10.00 Fair CLR 66.2 51.8 60% 29.67 0.0
09 11:35 SW 13 G 23 10.00 Fair CLR 64.4 50 60% 29.67 0.0
09 11:15 SW 16 G 20 10.00 Fair CLR 64.4 50 60% 29.68 0.0
09 10:55 W 10 G 20 10.00 Fair CLR 64.4 50 60% 29.68 0.0
09 10:35 W 15 G 22 10.00 Fair CLR 64.4 50 60% 29.68 0.0
09 10:15 SW 13 G 17 10.00 Fair CLR 62.6 50 64% 29.68 0.0
09 09:55 SW 10 10.00 Fair CLR 60.8 48.2 63% 29.67 0.0
09 09:35 SW 13 G 16 10.00 Partly Cloudy SCT120 60.8 50 68% 29.67 0.0
09 09:15 SW 12 G 16 10.00 Mostly Cloudy BKN120 59 50 72% 29.68 0.0
09 08:55 SW 13 G 17 10.00 Partly Cloudy SCT120 57.2 50 77% 29.68 0.0
09 08:35 S 14 G 21 10.00 Partly Cloudy SCT120 55.4 50 82% 29.68 0.0
09 08:15 SW 10 10.00 Partly Cloudy SCT110 53.6 50 88% 29.69 0.0
09 07:55 S 9 G 17 10.00 Partly Cloudy SCT110 53.6 48.2 82% 29.67 0.0
09 07:35 S 8 10.00 Mostly Cloudy BKN120 53.6 48.2 82% 29.67 0.0
09 07:15 S 7 10.00 Partly Cloudy SCT120 51.8 48.2 88% 29.68 0.0
09 06:55 S 5 10.00 Mostly Cloudy BKN120 51.8 48.2 88% 29.68 0.0
09 06:35 S 6 10.00 Mostly Cloudy BKN120 50 48.2 94% 48 29.68 0.0
09 06:15 S 6 10.00 Fair CLR 50 48.2 94% 48 29.68 0.0
09 05:55 S 6 10.00 Fair CLR 50 46.4 88% 48 29.68 0.0
09 05:35 S 5 10.00 Fair CLR 50 48.2 94% 49 29.68 0.0
09 05:15 S 5 10.00 Partly Cloudy SCT007 50 48.2 94% 49 29.69 0.0
09 04:55 S 8 10.00 Partly Cloudy SCT007 50 48.2 94% 47 29.69 0.0
09 04:35 S 7 10.00 Partly Cloudy SCT007 50 46.4 88% 48 29.69 0.0
09 04:15 S 6 10.00 Fair CLR 50 46.4 88% 48 29.69 0.0
09 03:55 S 6 10.00 Fair CLR 50 46.4 88% 48 29.69 0.0
09 03:35 S 6 10.00 Fair CLR 50 46.4 88% 48 29.69 0.0
09 03:15 SW 5 10.00 Fair CLR 46.4 46.4 100% 45 29.7 0.0
09 02:55 SW 6 10.00 Fair CLR 50 46.4 88% 48 29.69 0.0
09 02:35 SW 6 10.00 Fair CLR 50 46.4 88% 48 29.7 0.0
09 02:15 S 6 10.00 Fair CLR 50 48.2 94% 48 29.7 0.0
09 01:55 S 6 10.00 Fair CLR 50 48.2 94% 48 29.71 0.0
09 01:35 SW 7 10.00 Fair CLR 50 48.2 94% 48 29.72 0.0
09 01:15 S 6 10.00 Fair CLR 51.8 46.4 82% 29.72 0.0
09 00:55 S 5 10.00 Fair CLR 51.8 48.2 88% 29.72 0.0
09 00:35 SW 7 10.00 Fair CLR 51.8 46.4 82% 29.73 0.0
09 00:15 S 6 10.00 Fair CLR 51.8 48.2 88% 29.73 0.0
08 23:55 S 8 10.00 Fair CLR 53.6 48.2 82% 29.73 0.0
08 23:35 SW 7 10.00 Fair CLR 53.6 48.2 82% 29.73 0.0
08 23:15 S 6 10.00 Fair CLR 53.6 46.4 77% 29.73 0.0
08 22:55 S 7 10.00 Fair CLR 53.6 46.4 77% 29.74 0.0
08 22:35 S 6 10.00 Fair CLR 53.6 48.2 82% 29.74 0.0
08 22:15 S 5 10.00 Fair CLR 53.6 48.2 82% 29.75 0.0
08 21:55 S 5 10.00 Fair CLR 53.6 48.2 82% 29.75 0.0
08 21:35 S 6 10.00 Fair CLR 55.4 50 82% 29.76 0.0
08 21:15 S 6 10.00 Fair CLR 55.4 48.2 77% 29.75 0.0
08 20:55 Calm 10.00 Fair CLR 51.8 46.4 82% 29.74 0.0
08 20:35 Calm 10.00 Partly Cloudy SCT037 55.4 48.2 77% 29.75 0.0
08 20:15 Calm 10.00 Partly Cloudy SCT037 55.4 46.4 72% 29.75 0.0
08 19:55 Calm 10.00 Partly Cloudy SCT041 55.4 46.4 72% 29.74 0.0
08 19:35 Calm 10.00 Mostly Cloudy SCT038 SCT044 BKN075 59 46.4 63% 29.74 0.0
08 19:15 Calm 10.00 Mostly Cloudy SCT039 BKN045 59 46.4 63% 29.74 0.0
08 18:55 Calm 10.00 Mostly Cloudy BKN043 60.8 46.4 59% 29.74 0.0
08 18:35 Calm 10.00 Partly Cloudy SCT041 SCT050 62.6 42.8 49% 29.74 0.0
08 18:15 Calm 10.00 Fair CLR 62.6 42.8 49% 29.74 0.0
08 17:55 NW 3 10.00 Fair CLR 62.6 44.6 52% 29.74 0.0
08 17:35 N 5 10.00 Partly Cloudy SCT046 SCT055 62.6 44.6 52% 29.74 0.0
08 17:15 N 6 10.00 Partly Cloudy SCT046 62.6 44.6 52% 29.75 0.0
08 16:55 Calm 10.00 Partly Cloudy SCT041 SCT048 SCT060 64.4 42.8 46% 29.75 0.0
08 16:35 S 3 10.00 Mostly Cloudy SCT041 SCT065 BKN075 62.6 44.6 52% 29.75 0.0
08 16:15 W 3 10.00 Partly Cloudy SCT039 62.6 44.6 52% 29.75 0.0
08 15:55 S 3 10.00 Partly Cloudy SCT039 SCT070 62.6 48.2 60% 29.76 0.0
08 15:35 Calm 10.00 Mostly Cloudy SCT037 BKN045 BKN070 60.8 46.4 59% 29.77 0.0
08 15:15 SW 8 10.00 Overcast SCT037 BKN043 OVC060 60.8 46.4 59% 29.77 0.0
08 14:55 Calm 10.00 Overcast SCT048 OVC060 60.8 44.6 55% 29.78 0.0
08 14:35 SW 5 10.00 Overcast SCT043 OVC050 60.8 46.4 59% 29.79 0.0
08 14:15 SW 3 10.00 Overcast BKN035 OVC055 60.8 46.4 59% 29.79 0.0
08 13:55 Calm 10.00 Overcast BKN035 OVC040 59 46.4 63% 29.8 0.0
08 13:35 Calm 10.00 Overcast BKN035 BKN041 OVC090 59 46.4 63% 29.81 0.0
08 13:15 W 3 10.00 Overcast BKN035 BKN040 OVC090 60.8 46.4 59% 29.82 0.0
08 12:55 W 8 10.00 Overcast BKN035 OVC041 60.8 46.4 59% 29.82 0.0
08 12:35 S 6 10.00 Mostly Cloudy SCT037 SCT044 BKN090 60.8 46.4 59% 29.83 0.0
08 12:15 SW 6 10.00 Overcast SCT042 SCT048 OVC090 60.8 46.4 59% 29.84 0.0
08 11:55 S 7 10.00 Overcast BKN040 OVC080 60.8 42.8 52% 29.85 0.0
08 11:35 W 3 10.00 Mostly Cloudy BKN038 BKN080 59 44.6 59% 29.86 0.0
08 11:15 SW 3 10.00 Mostly Cloudy BKN080 59 42.8 55% 29.86 0.0
08 10:55 Calm 10.00 Overcast OVC080 59 37.4 45% 29.87 0.0
08 10:35 W 3 10.00 Mostly Cloudy BKN080 57.2 42.8 59% 29.87 0.0
08 10:15 SW 7 10.00 Partly Cloudy SCT080 SCT110 57.2 46.4 67% 29.87 0.0
08 09:55 SW 6 10.00 Partly Cloudy SCT080 SCT110 55.4 46.4 72% 29.87 0.0
08 09:35 SW 5 10.00 Mostly Cloudy BKN080 BKN110 53.6 44.6 72% 29.87 0.0
08 09:15 SW 5 10.00 Overcast BKN080 OVC110 53.6 44.6 72% 29.87 0.0
08 08:55 Calm 10.00 Mostly Cloudy BKN090 51.8 44.6 77% 29.87 0.0
08 08:35 S 3 10.00 Overcast OVC090 50 44.6 82% 29.88 0.0
08 08:15 SW 3 10.00 Mostly Cloudy BKN090 50 44.6 82% 29.89 0.0
08 07:55 SW 5 10.00 Mostly Cloudy BKN100 BKN120 50 44.6 82% 49 29.89 0.0
08 07:35 Calm 10.00 Overcast BKN100 OVC120 46.4 44.6 93% 29.88 0.0
08 07:15 Calm 10.00 Overcast OVC100 44.6 44.6 100% 29.88 0.0
08 06:55 Calm 10.00 Overcast SCT070 OVC100 44.6 42.8 93% 29.88 0.0
08 06:35 Calm 10.00 Overcast SCT070 OVC110 41 41 100% 29.88 0.0
08 06:15 Calm 10.00 Overcast SCT070 OVC110 41 39.2 93% 29.87 0.0
08 05:35 Calm 10.00 Partly Cloudy SCT070 SCT120 39.2 37.4 93% 29.87 0.0
08 05:15 S 3 7.00 Mostly Cloudy SCT070 BKN120 41 39.2 93% 29.87 0.0
08 04:55 Calm 10.00 Partly Cloudy SCT060 SCT075 37.4 37.4 100% 29.87 0.0
08 04:35 S 3 10.00 Partly Cloudy SCT060 SCT075 39.2 37.4 93% 29.87 0.0
08 04:15 Calm 7.00 Partly Cloudy SCT060 39.2 39.2 100% 29.87 0.0
08 03:55 Calm 3.00 Fog/Mist BKN060 BKN075 39.2 37.4 93% 29.87 0.0
08 03:35 Calm 2.50 Fog/Mist SCT060 39.2 39.2 100% 29.88 0.0
08 03:15 Calm 10.00 Fair CLR 39.2 39.2 100% 29.88 0.0
08 02:55 Calm 7.00 Fair CLR 41 39.2 93% 29.87 0.0
08 02:35 Calm 10.00 Fair CLR 41 41 100% 29.87 0.0
08 02:15 Calm 10.00 Fair CLR 41 39.2 93% 29.87 0.0
08 01:55 Calm 10.00 Fair CLR 41 41 100% 29.88 0.0
08 01:35 Calm 10.00 Fair CLR 42.8 41 93% 29.88 0.0
08 01:15 Calm 10.00 Fair CLR 42.8 41 93% 29.88 0.0
08 00:55 Calm 10.00 Partly Cloudy SCT060 42.8 41 93% 29.88 0.0
08 00:35 Calm 10.00 Partly Cloudy SCT060 42.8 41 93% 29.88 0.0
08 00:15 Calm 10.00 Partly Cloudy SCT075 42.8 41 93% 29.88 0.0
07 23:55 Calm 10.00 Partly Cloudy SCT075 42.8 41 93% 29.88 0.0
07 23:35 Calm 10.00 Fair CLR 42.8 41 93% 29.88 0.0
07 23:15 Calm 10.00 Fair CLR 44.6 41 87% 29.87 0.0
07 22:55 Calm 10.00 Partly Cloudy SCT100 42.8 41 93% 29.87 0.0
07 22:35 Calm 10.00 Partly Cloudy SCT100 42.8 42.8 100% 29.87 0.0
07 22:15 Calm 5.00 Fog/Mist CLR 42.8 41 93% 29.87 0.0
07 21:55 Calm 1.75 Fog/Mist SCT002 BKN080 42.8 41 93% 29.87 0.0
07 21:35 Calm 0.75 Fog/Mist BKN002 BKN080 41 41 100% 29.87 0.0
07 21:15 Calm 1.00 Fog/Mist VV007 42.8 42.8 100% 29.87 0.0
07 20:35 Calm 5.00 Fog/Mist CLR 42.8 41 93% 29.86 0.0
07 20:15 Calm 10.00 Fair CLR 44.6 42.8 93% 29.85 0.0
07 19:55 E 3 10.00 Fair CLR 44.6 42.8 93% 29.85 0.0
07 19:35 Calm 10.00 Partly Cloudy SCT110 46.4 44.6 93% 29.86 0.0
07 19:15 SE 6 10.00 Partly Cloudy SCT120 46.4 44.6 93% 44 29.86 0.0
07 18:55 SE 6 10.00 Mostly Cloudy SCT012 SCT028 BKN120 46.4 44.6 93% 44 29.87 0.0
07 18:35 W 10 G 24 5.00 Rain SCT031 SCT037 OVC046 46.4 41 82% 42 29.91 0.0
07 18:15 NW 9 10.00 Light Rain BKN048 BKN060 OVC070 53.6 37.4 54% 29.87 0.0
07 17:55 SW 9 G 16 10.00 Overcast SCT050 BKN080 OVC090 53.6 37.4 54% 29.85 0.0
07 17:35 SW 13 G 21 10.00 Overcast OVC050 57.2 37.4 48% 29.86 0.0
07 17:15 SW 14 G 23 10.00 Overcast BKN050 OVC060 53.6 37.4 54% 29.87 0.0
07 16:55 SW 15 G 21 10.00 Overcast BKN049 OVC060 55.4 35.6 47% 29.87 0.0
07 16:35 W 14 G 22 10.00 Overcast BKN049 OVC055 55.4 35.6 47% 29.87 0.0
07 16:15 W 10 G 24 10.00 Overcast BKN047 OVC055 55.4 35.6 47% 29.86 0.0
07 15:15 SW 21 G 28 10.00 Overcast and Breezy OVC060 57.2 35.6 44% 29.88 0.0
07 14:55 SW 16 G 28 10.00 Overcast SCT065 OVC070 55.4 32 41% 29.88 0.0
07 14:35 SW 16 G 23 10.00 Overcast SCT065 BKN080 OVC090 55.4 33.8 44% 29.9 0.0
07 14:15 SW 16 G 26 10.00 Overcast OVC065 55.4 32 41% 29.91 0.0
07 13:55 W 6 G 16 10.00 Mostly Cloudy BKN065 BKN120 55.4 32 41% 29.91 0.0
07 13:35 SW 6 G 18 10.00 Partly Cloudy SCT065 SCT080 SCT120 55.4 32 41% 29.92 0.0
07 13:15 S 6 10.00 Partly Cloudy SCT100 55.4 30.2 38% 29.92 0.0
07 12:55 SW 6 10.00 Partly Cloudy SCT100 55.4 32 41% 29.94 0.0
07 12:35 W 3 10.00 Partly Cloudy SCT110 51.8 30.2 44% 29.95 0.0
07 12:15 N 3 10.00 Partly Cloudy SCT100 51.8 30.2 44% 29.97 0.0
07 11:55 N 3 10.00 Fair CLR 51.8 32 47% 29.98 0.0
07 11:35 NW 8 10.00 Fair CLR 50 30.2 47% 47 29.99 0.0
07 11:15 W 8 10.00 Fair CLR 50 30.2 47% 47 30 0.0
07 10:55 NW 5 10.00 Fair CLR 50 30.2 47% 49 30 0.0
07 10:35 NW 7 10.00 Partly Cloudy SCT095 50 28.4 43% 48 30 0.0
07 10:15 W 12 G 16 10.00 Partly Cloudy SCT095 50 32 50% 46 30.01 0.0
07 09:55 NW 6 10.00 Mostly Cloudy BKN095 48.2 28.4 46% 46 30.01 0.0
07 09:35 NW 9 10.00 Partly Cloudy SCT095 46.4 28.4 50% 42 30.01 0.0
07 09:15 NW 8 10.00 Fair CLR 46.4 30.2 53% 43 30.01 0.0
07 08:55 W 9 10.00 Fair CLR 46.4 30.2 53% 42 30.01 0.0
07 08:35 W 8 10.00 Fair CLR 46.4 30.2 53% 43 30 0.0
07 08:15 W 8 10.00 Fair CLR 44.6 30.2 57% 41 30 0.0
07 07:55 W 5 10.00 Fair CLR 44.6 32 61% 43 30 0.0
07 07:35 SW 3 10.00 Fair CLR 42.8 32 66% 30 0.0
07 07:15 SW 3 10.00 Fair CLR 41 32 70% 30 0.0
07 06:55 Calm 10.00 Fair CLR 37.4 32 81% 30 0.0
07 06:35 S 3 10.00 Fair CLR 35.6 32 87% 30 0.0
07 06:15 Calm 10.00 Fair CLR 33.8 30.2 87% 29.99 0.0
07 05:55 Calm 10.00 Fair CLR 33.8 30.2 87% 29.99 0.0
07 05:35 S 3 10.00 Fair CLR 32 30.2 93% 29.99 0.0
07 05:15 Calm 10.00 Fair CLR 33.8 32 93% 29.98 0.0
07 04:55 Calm 10.00 Fair CLR 33.8 32 93% 29.98 0.0
07 04:35 Calm 10.00 Fair CLR 33.8 32 93% 29.99 0.0
07 04:15 Calm 10.00 Fair CLR 35.6 30.2 81% 29.98 0.0
07 03:55 Calm 10.00 Fair CLR 37.4 30.2 75% 29.99 0.0
07 03:35 Calm 10.00 Fair CLR 41 30.2 66% 29.99 0.0
07 03:15 Calm 10.00 Fair CLR 41 28.4 61% 29.99 0.0
07 02:55 Calm 10.00 Fair CLR 41 30.2 66% 29.99 0.0
07 02:35 NW 3 10.00 Fair CLR 41 30.2 66% 29.99 0.0
07 02:15 NW 6 10.00 Fair CLR 41 28.4 61% 38 29.99 0.0
07 01:55 NW 5 10.00 Fair CLR 41 30.2 66% 38 29.99 0.0
07 01:35 NW 3 10.00 Fair CLR 42.8 30.2 61% 29.99 0.0
07 01:15 NW 6 10.00 Fair CLR 42.8 30.2 61% 40 30 0.0
07 00:55 NW 6 10.00 Fair CLR 42.8 30.2 61% 40 30 0.0
07 00:35 NW 6 10.00 Fair CLR 42.8 30.2 61% 40 30 0.0
07 00:15 NW 6 10.00 Fair CLR 42.8 30.2 61% 40 30 0.0
06 23:55 NW 7 10.00 Fair CLR 42.8 30.2 61% 39 30 0.0
06 23:35 W 7 10.00 Fair CLR 44.6 30.2 57% 41 30 0.0
06 23:15 W 9 10.00 Fair CLR 44.6 28.4 53% 40 29.99 0.0
06 22:55 W 7 10.00 Fair CLR 44.6 30.2 57% 41 29.99 0.0
06 22:35 NW 7 10.00 Fair CLR 44.6 30.2 57% 41 29.99 0.0
06 22:15 NW 8 10.00 Fair CLR 46.4 30.2 53% 43 29.99 0.0
06 21:55 W 9 10.00 Fair CLR 46.4 32 57% 42 29.99 0.0
06 21:35 W 9 G 16 10.00 Partly Cloudy SCT075 46.4 32 57% 42 29.98 0.0
06 21:15 W 8 10.00 Overcast OVC075 48.2 32 54% 45 29.98 0.0
06 20:55 NW 9 10.00 Overcast OVC085 46.4 32 57% 42 29.97 0.0
06 20:35 NW 10 10.00 Overcast OVC085 50 32 50% 46 29.96 0.0
06 20:15 NW 8 10.00 Overcast OVC085 50 32 50% 47 29.96 0.0
06 19:55 NW 8 10.00 Overcast OVC085 50 32 50% 47 29.95 0.0
06 19:35 NW 8 10.00 Overcast OVC085 50 32 50% 47 29.95 0.0
06 19:15 NW 10 G 17 10.00 Overcast OVC085 51.8 32 47% 29.94 0.0
06 18:55 W 8 10.00 Mostly Cloudy BKN085 51.8 32 47% 29.94 0.0
06 18:35 W 7 10.00 Overcast OVC085 51.8 30.2 44% 29.93 0.0
06 18:15 W 7 10.00 Overcast OVC080 53.6 30.2 41% 29.93 0.0
06 17:55 W 5 10.00 Overcast OVC080 53.6 28.4 38% 29.93 0.0
06 17:35 W 6 10.00 Overcast OVC080 53.6 30.2 41% 29.93 0.0
06 17:15 W 8 10.00 Overcast OVC080 53.6 30.2 41% 29.93 0.0
Date Time (cdt) Wind (mph) Vis. (mi.) Weather Sky Cond. Air Dwpt Max. Min. Relative Humidity Wind Chill (°F) Heat Index (°F) altimeter (in) sea level (mb) 1 hr 3 hr 6 hr
6 hour
Temperature (ºF) Pressure Precipitation (in)